KLM836 WSSS-EHAM

Flight info

Callsign KLM836
Flight time N/A
Altitude 30000
Route AROSO3A AROSO Y513 KALIL Y501 RINBA Y503 VPL P628 DORIL/N0511F320 P628 VIKIT/N0502F340 P628 RK G202 ZB L750 RANAH B449 MAMED B450 BIBIM A909 RODAR N644 TETRO M10 SARPI UM10 ATCEF/N0489F360 UM10 GOKPA UL746 INB UW90 DEVMU UL852 NEGEM DCT DEGET DCT ALAMU DCT MAREG DCT KOVEL DCT DITIS DCT VARIK DCT KATCE DCT NORKU
Aircraft B77W/H-SDE1E2E3FGHIJ2J3J4J5M1RWXY/LB1D1

Departure

Time N/A
Airport Singapore Changi Airport (WSSS)

Arrival

Time 2026-05-05 10:09
Airport Amsterdam Airport Schiphol (EHAM)
Time Latitude Longitude Altitude Speed Heading
2026-05-05 07:40 43.90591 27.07455 36000 ft 465 kts 304°
2026-05-05 07:40 43.92415 27.03749 36001 ft 465 kts 304°
2026-05-05 07:41 43.96052 26.96344 36001 ft 464 kts 304°
2026-05-05 07:41 43.99690 26.88918 36002 ft 464 kts 304°
2026-05-05 07:42 44.03319 26.81490 36001 ft 464 kts 304°
2026-05-05 07:42 44.06938 26.74067 36000 ft 464 kts 304°
2026-05-05 07:43 44.10536 26.66665 36002 ft 464 kts 304°
2026-05-05 07:43 44.14148 26.59217 36001 ft 464 kts 304°
2026-05-05 07:44 44.17752 26.51765 36001 ft 464 kts 304°
2026-05-05 07:44 44.21293 26.44425 36003 ft 464 kts 304°
2026-05-05 07:45 44.24867 26.36999 36002 ft 464 kts 304°
2026-05-05 07:45 44.28484 26.29463 35998 ft 464 kts 304°
2026-05-05 07:46 44.32041 26.22034 36003 ft 464 kts 304°
2026-05-05 07:46 44.35626 26.14526 36002 ft 464 kts 304°
2026-05-05 07:47 44.39202 26.07018 36003 ft 464 kts 303°
2026-05-05 07:47 44.42780 25.99485 36003 ft 464 kts 303°
2026-05-05 07:48 44.46333 25.91986 35999 ft 464 kts 303°
2026-05-05 07:48 44.49892 25.84456 36001 ft 464 kts 303°
2026-05-05 07:49 44.53462 25.76882 36001 ft 465 kts 303°
2026-05-05 07:49 44.57024 25.69305 36003 ft 465 kts 303°
2026-05-05 07:50 44.60574 25.61734 36001 ft 465 kts 303°
2026-05-05 07:50 44.64104 25.54186 36002 ft 465 kts 303°
2026-05-05 07:51 44.67651 25.46580 36003 ft 465 kts 303°
2026-05-05 07:51 44.71191 25.38969 36001 ft 465 kts 303°
2026-05-05 07:52 44.74730 25.31342 36001 ft 465 kts 303°
2026-05-05 07:52 44.78263 25.23705 36001 ft 465 kts 303°
2026-05-05 07:53 44.81771 25.16104 36003 ft 465 kts 303°
2026-05-05 07:53 44.85295 25.08448 36003 ft 466 kts 303°
2026-05-05 07:54 44.88812 25.00785 36003 ft 466 kts 303°
2026-05-05 07:54 44.92339 24.93080 36001 ft 466 kts 303°
2026-05-05 07:55 44.95851 24.85388 36001 ft 467 kts 303°
2026-05-05 07:55 44.99354 24.77694 36000 ft 467 kts 303°
2026-05-05 07:56 45.02867 24.69960 36001 ft 467 kts 303°
2026-05-05 07:56 45.06371 24.62222 36001 ft 467 kts 302°
2026-05-05 07:57 45.09853 24.54511 36004 ft 467 kts 302°
2026-05-05 07:57 45.13343 24.46762 36002 ft 467 kts 302°
2026-05-05 07:58 45.16257 24.40277 36004 ft 467 kts 302°
2026-05-05 07:58 45.19722 24.32546 36000 ft 467 kts 302°
2026-05-05 07:59 45.23198 24.24769 35999 ft 467 kts 302°
2026-05-05 07:59 45.26686 24.16942 36003 ft 468 kts 302°
2026-05-05 08:00 45.30159 24.09129 35994 ft 470 kts 302°
2026-05-05 08:00 45.33666 24.01217 36011 ft 473 kts 302°
2026-05-05 08:01 45.37170 23.93289 36002 ft 474 kts 302°
2026-05-05 08:01 45.40669 23.85352 35995 ft 475 kts 302°
2026-05-05 08:02 45.44141 23.77453 36002 ft 475 kts 302°
2026-05-05 08:02 45.47640 23.69470 35996 ft 476 kts 302°
2026-05-05 08:03 45.51143 23.61455 36008 ft 476 kts 302°
2026-05-05 08:03 45.54641 23.53427 35998 ft 477 kts 302°
2026-05-05 08:04 45.58128 23.45404 36003 ft 477 kts 302°
2026-05-05 08:04 45.61621 23.37343 36004 ft 477 kts 302°
2026-05-05 08:05 45.65091 23.29312 36000 ft 476 kts 302°
2026-05-05 08:05 45.68560 23.21260 35997 ft 474 kts 302°
2026-05-05 08:06 45.71997 23.13262 36007 ft 470 kts 301°
2026-05-05 08:06 45.75382 23.05358 35994 ft 467 kts 301°
2026-05-05 08:07 45.78761 22.97451 35997 ft 464 kts 301°
2026-05-05 08:07 45.82120 22.89566 35998 ft 462 kts 301°
2026-05-05 08:08 45.85467 22.81687 35999 ft 462 kts 301°
2026-05-05 08:08 45.88812 22.73788 36003 ft 464 kts 301°
2026-05-05 08:09 45.92155 22.65874 36006 ft 466 kts 301°
2026-05-05 08:09 45.95514 22.57900 36004 ft 467 kts 301°
2026-05-05 08:10 45.98868 22.49915 36001 ft 468 kts 301°
2026-05-05 08:10 46.02222 22.41906 36004 ft 468 kts 301°
2026-05-05 08:11 46.05552 22.33930 36000 ft 468 kts 301°
2026-05-05 08:11 46.08898 22.25895 36001 ft 467 kts 301°
2026-05-05 08:12 46.12232 22.17865 35996 ft 467 kts 301°
2026-05-05 08:12 46.15559 22.09826 36001 ft 467 kts 301°
2026-05-05 08:13 46.18875 22.01794 36000 ft 466 kts 301°
2026-05-05 08:13 46.22189 21.93741 36003 ft 466 kts 301°
2026-05-05 08:14 46.25468 21.85751 36002 ft 466 kts 301°
2026-05-05 08:14 46.28747 21.77736 36002 ft 465 kts 301°
2026-05-05 08:15 46.32033 21.69681 35996 ft 465 kts 300°
2026-05-05 08:15 46.35312 21.61621 36003 ft 464 kts 300°
2026-05-05 08:16 46.38585 21.53551 36002 ft 464 kts 300°
2026-05-05 08:16 46.41826 21.45534 36001 ft 464 kts 300°
2026-05-05 08:17 46.45077 21.37469 36000 ft 464 kts 300°
2026-05-05 08:17 46.48331 21.29374 36003 ft 464 kts 300°
2026-05-05 08:18 46.51665 21.21333 36000 ft 464 kts 303°
2026-05-05 08:18 46.55199 21.13487 36003 ft 464 kts 303°
2026-05-05 08:19 46.58747 21.05640 36003 ft 464 kts 303°
2026-05-05 08:19 46.62260 20.97758 36001 ft 465 kts 303°
2026-05-05 08:20 46.65756 20.89835 36003 ft 465 kts 303°
2026-05-05 08:20 46.69215 20.81961 36001 ft 465 kts 302°
2026-05-05 08:21 46.72695 20.74021 36003 ft 465 kts 302°
2026-05-05 08:21 46.76163 20.66085 36001 ft 465 kts 302°
2026-05-05 08:22 46.79633 20.58124 36002 ft 465 kts 302°
2026-05-05 08:22 46.83097 20.50156 36003 ft 465 kts 302°
2026-05-05 08:23 46.86554 20.42179 36003 ft 465 kts 302°
2026-05-05 08:23 46.89985 20.34240 36002 ft 465 kts 302°
2026-05-05 08:24 46.93433 20.26238 36003 ft 465 kts 302°
2026-05-05 08:24 46.96876 20.18224 36001 ft 465 kts 302°
2026-05-05 08:25 47.00311 20.10207 36001 ft 465 kts 302°
2026-05-05 08:25 47.03732 20.02198 36000 ft 465 kts 302°
2026-05-05 08:26 47.07159 19.94152 36002 ft 465 kts 302°
2026-05-05 08:26 47.10555 19.86154 36001 ft 465 kts 302°
2026-05-05 08:27 47.13969 19.78090 35998 ft 465 kts 302°
2026-05-05 08:27 47.17380 19.70011 36003 ft 465 kts 302°
2026-05-05 08:28 47.20782 19.61929 35998 ft 465 kts 302°
2026-05-05 08:28 47.24170 19.53856 35997 ft 465 kts 302°
2026-05-05 08:29 47.27544 19.45793 36000 ft 465 kts 302°
2026-05-05 08:30 47.32605 19.33653 36001 ft 465 kts 301°
2026-05-05 08:30 47.35985 19.25515 36002 ft 465 kts 301°
2026-05-05 08:31 47.39356 19.17376 36003 ft 465 kts 301°
2026-05-05 08:31 47.42706 19.09261 35999 ft 465 kts 301°
2026-05-05 08:32 47.46067 19.01097 36003 ft 465 kts 301°
2026-05-05 08:32 47.49424 18.92918 36000 ft 465 kts 301°
2026-05-05 08:33 47.52770 18.84738 36002 ft 466 kts 301°
2026-05-05 08:33 47.56123 18.76519 36002 ft 466 kts 301°
2026-05-05 08:34 47.59434 18.68378 35998 ft 466 kts 301°
2026-05-05 08:34 47.62780 18.60125 36003 ft 466 kts 301°
2026-05-05 08:35 47.66109 18.51886 36001 ft 466 kts 301°
2026-05-05 08:35 47.69414 18.43681 36001 ft 466 kts 301°
2026-05-05 08:36 47.72734 18.35421 36001 ft 467 kts 301°
2026-05-05 08:36 47.75831 18.26970 36012 ft 466 kts 297°
2026-05-05 08:37 47.78733 18.18367 36003 ft 466 kts 296°
2026-05-05 08:37 47.81615 18.09781 35997 ft 465 kts 296°
2026-05-05 08:38 47.84516 18.01173 35999 ft 465 kts 297°
2026-05-05 08:38 47.87415 17.92570 36002 ft 464 kts 296°
2026-05-05 08:39 47.90308 17.83959 36003 ft 464 kts 296°
2026-05-05 08:39 47.93191 17.75348 36003 ft 464 kts 296°
2026-05-05 08:40 47.96054 17.66767 35999 ft 464 kts 296°
2026-05-05 08:40 47.98923 17.58137 36002 ft 464 kts 296°
2026-05-05 08:41 48.01794 17.49471 35999 ft 465 kts 296°
2026-05-05 08:41 48.04653 17.40813 36000 ft 465 kts 296°
2026-05-05 08:42 48.07509 17.32134 36002 ft 465 kts 296°
2026-05-05 08:42 48.10337 17.23510 36002 ft 465 kts 296°
2026-05-05 08:43 48.13172 17.14837 36002 ft 465 kts 296°
2026-05-05 08:43 48.16011 17.06120 36001 ft 465 kts 296°
2026-05-05 08:44 48.18846 16.97403 36002 ft 466 kts 297°
2026-05-05 08:44 48.21980 16.88891 36004 ft 465 kts 300°
2026-05-05 08:45 48.24675 16.81908 35996 ft 466 kts 300°
2026-05-05 08:45 48.27911 16.73485 36001 ft 465 kts 300°
2026-05-05 08:46 48.31119 16.65034 36001 ft 465 kts 300°
2026-05-05 08:46 48.34299 16.56598 36001 ft 465 kts 300°
2026-05-05 08:47 48.37485 16.48114 35998 ft 465 kts 299°
2026-05-05 08:47 48.40664 16.39626 36002 ft 466 kts 299°
2026-05-05 08:48 48.43800 16.31228 36002 ft 466 kts 299°
2026-05-05 08:48 48.46971 16.22710 36004 ft 466 kts 299°
2026-05-05 08:49 48.50130 16.14194 35998 ft 466 kts 299°
2026-05-05 08:49 48.53281 16.05674 36000 ft 466 kts 299°
2026-05-05 08:50 48.56434 15.97120 36001 ft 466 kts 299°
2026-05-05 08:50 48.59582 15.88550 36002 ft 466 kts 299°
2026-05-05 08:51 48.62719 15.79983 36002 ft 466 kts 299°
2026-05-05 08:51 48.65855 15.71387 36003 ft 467 kts 299°
2026-05-05 08:52 48.68989 15.62772 36002 ft 467 kts 299°
2026-05-05 08:52 48.72265 15.54279 35998 ft 467 kts 302°
2026-05-05 08:53 48.75723 15.45982 36002 ft 468 kts 302°
2026-05-05 08:53 48.79153 15.37716 36002 ft 468 kts 302°
2026-05-05 08:54 48.82594 15.29318 36004 ft 468 kts 302°
2026-05-05 08:54 48.85992 15.20977 36001 ft 469 kts 302°
2026-05-05 08:55 48.89441 15.12531 36000 ft 469 kts 303°
2026-05-05 08:55 48.93396 15.04668 36009 ft 468 kts 309°
2026-05-05 08:56 48.97551 14.97011 36001 ft 469 kts 309°
2026-05-05 08:56 49.01660 14.89384 36000 ft 468 kts 309°
2026-05-05 08:57 49.05774 14.81663 36002 ft 468 kts 309°
2026-05-05 08:57 49.09861 14.73940 36001 ft 467 kts 309°
2026-05-05 08:58 49.13941 14.66205 36002 ft 467 kts 309°
2026-05-05 08:58 49.18019 14.58453 36000 ft 467 kts 309°
2026-05-05 08:59 49.22086 14.50701 36002 ft 467 kts 309°
2026-05-05 08:59 49.26116 14.42997 36001 ft 467 kts 309°
2026-05-05 09:00 49.30172 14.35222 36002 ft 467 kts 308°
2026-05-05 09:00 49.34228 14.27424 36004 ft 467 kts 308°
2026-05-05 09:01 49.38271 14.19627 36002 ft 467 kts 308°
2026-05-05 09:01 49.42313 14.11809 36002 ft 467 kts 308°
2026-05-05 09:02 49.46347 14.03985 35999 ft 467 kts 308°
2026-05-05 09:02 49.50359 13.96178 36001 ft 467 kts 308°
2026-05-05 09:03 49.54393 13.88307 36002 ft 468 kts 308°
2026-05-05 09:03 49.58374 13.80516 36001 ft 468 kts 308°
2026-05-05 09:04 49.62389 13.72636 36003 ft 469 kts 308°
2026-05-05 09:04 49.66418 13.64703 36001 ft 469 kts 308°
2026-05-05 09:05 49.70394 13.56851 36000 ft 469 kts 308°
2026-05-05 09:05 49.74372 13.48973 36001 ft 468 kts 308°
2026-05-05 09:06 49.78335 13.41100 36002 ft 468 kts 308°
2026-05-05 09:06 49.82331 13.33139 35998 ft 467 kts 308°
2026-05-05 09:07 49.86315 13.25176 35998 ft 467 kts 308°
2026-05-05 09:07 49.90268 13.17252 36002 ft 467 kts 308°
2026-05-05 09:08 49.94251 13.09245 36001 ft 467 kts 308°
2026-05-05 09:08 49.98188 13.01305 36002 ft 468 kts 308°
2026-05-05 09:09 50.02127 12.93337 36002 ft 469 kts 307°
2026-05-05 09:09 50.06098 12.85280 36003 ft 469 kts 307°
2026-05-05 09:10 50.10066 12.77202 36002 ft 470 kts 307°
2026-05-05 09:10 50.14029 12.69113 36003 ft 470 kts 307°
2026-05-05 09:11 50.17972 12.61037 36003 ft 469 kts 307°
2026-05-05 09:11 50.21907 12.52952 35994 ft 469 kts 307°
2026-05-05 09:12 50.25834 12.44859 36000 ft 468 kts 307°
2026-05-05 09:12 50.29768 12.36733 36002 ft 468 kts 307°
2026-05-05 09:13 50.33732 12.28632 36000 ft 468 kts 308°
2026-05-05 09:13 50.37696 12.20551 36003 ft 468 kts 307°
2026-05-05 09:14 50.41640 12.12473 35998 ft 467 kts 307°
2026-05-05 09:14 50.45594 12.04335 36002 ft 467 kts 307°
2026-05-05 09:15 50.49484 11.96300 35999 ft 467 kts 307°
2026-05-05 09:15 50.53434 11.88118 36004 ft 467 kts 307°
2026-05-05 09:16 50.57333 11.80016 36003 ft 467 kts 307°
2026-05-05 09:16 50.61252 11.71847 36001 ft 468 kts 307°
2026-05-05 09:17 50.65169 11.63656 36003 ft 468 kts 307°
2026-05-05 09:17 50.69077 11.55458 36005 ft 467 kts 307°
2026-05-05 09:18 50.72984 11.47238 36001 ft 467 kts 307°
2026-05-05 09:18 50.76874 11.39026 36000 ft 467 kts 307°
2026-05-05 09:19 50.80758 11.30802 35998 ft 467 kts 307°
2026-05-05 09:19 50.84611 11.22616 36000 ft 467 kts 307°
2026-05-05 09:20 50.88481 11.14370 36003 ft 467 kts 307°
2026-05-05 09:20 50.92353 11.06093 36004 ft 467 kts 307°
2026-05-05 09:21 50.96217 10.97808 36004 ft 467 kts 306°
2026-05-05 09:21 51.00065 10.89529 36000 ft 467 kts 306°
2026-05-05 09:22 51.03908 10.81234 35999 ft 467 kts 306°
2026-05-05 09:22 51.07755 10.72904 36004 ft 466 kts 306°
2026-05-05 09:23 51.11569 10.64619 36000 ft 466 kts 306°
2026-05-05 09:23 51.15383 10.56308 36002 ft 466 kts 306°
2026-05-05 09:24 51.19198 10.47965 36000 ft 465 kts 306°
2026-05-05 09:24 51.23008 10.39611 35998 ft 465 kts 306°
2026-05-05 09:25 51.26467 10.30892 35995 ft 465 kts 296°
2026-05-05 09:25 51.29291 10.21565 35999 ft 466 kts 295°
2026-05-05 09:26 51.32084 10.12213 36004 ft 467 kts 296°
2026-05-05 09:26 51.34901 10.02844 36001 ft 467 kts 296°
2026-05-05 09:27 51.37732 9.93460 36004 ft 467 kts 296°
2026-05-05 09:27 51.40540 9.84130 35995 ft 467 kts 296°
2026-05-05 09:28 51.43360 9.74724 36000 ft 467 kts 296°
2026-05-05 09:28 51.46170 9.65311 35768 ft 469 kts 295°
2026-05-05 09:28 51.47571 9.60604 35522 ft 466 kts 295°
2026-05-05 09:29 51.48959 9.55933 35327 ft 460 kts 295°
2026-05-05 09:29 51.50303 9.51397 35151 ft 458 kts 295°
2026-05-05 09:29 51.51670 9.46779 34958 ft 457 kts 295°
2026-05-05 09:29 51.53031 9.42171 34758 ft 456 kts 295°
2026-05-05 09:30 51.54388 9.37565 34559 ft 455 kts 295°
2026-05-05 09:30 51.55743 9.32959 34355 ft 454 kts 295°
2026-05-05 09:30 51.56634 9.29925 34237 ft 453 kts 295°
2026-05-05 09:30 51.57978 9.25344 34019 ft 452 kts 295°
2026-05-05 09:31 51.59316 9.20770 33839 ft 452 kts 295°
2026-05-05 09:31 51.60650 9.16204 33635 ft 451 kts 295°
2026-05-05 09:31 51.61980 9.11645 33435 ft 450 kts 295°
2026-05-05 09:31 51.63304 9.07094 33234 ft 448 kts 295°
2026-05-05 09:32 51.64623 9.02552 33028 ft 447 kts 295°
2026-05-05 09:32 51.65937 8.98019 32834 ft 446 kts 295°
2026-05-05 09:32 51.67245 8.93502 32641 ft 445 kts 295°
2026-05-05 09:32 51.68548 8.88989 32433 ft 443 kts 295°
2026-05-05 09:33 51.69846 8.84487 32235 ft 441 kts 295°
2026-05-05 09:33 51.71137 8.79997 32032 ft 440 kts 295°
2026-05-05 09:33 51.72420 8.75529 31831 ft 438 kts 295°
2026-05-05 09:33 51.73693 8.71087 31628 ft 436 kts 295°
2026-05-05 09:34 51.74947 8.66706 31444 ft 434 kts 295°
2026-05-05 09:34 51.76208 8.62291 31232 ft 432 kts 295°
2026-05-05 09:34 51.77482 8.57818 31027 ft 431 kts 295°
2026-05-05 09:34 51.78709 8.53507 30830 ft 429 kts 295°
2026-05-05 09:35 51.79955 8.49119 30608 ft 427 kts 295°
2026-05-05 09:35 51.82418 8.40420 30224 ft 424 kts 295°
2026-05-05 09:35 51.83641 8.36090 30033 ft 422 kts 294°
2026-05-05 09:36 51.84857 8.31775 29814 ft 421 kts 294°
2026-05-05 09:36 51.86069 8.27467 29625 ft 420 kts 294°
2026-05-05 09:36 51.87277 8.23166 29431 ft 418 kts 294°
2026-05-05 09:36 51.88476 8.18889 29226 ft 417 kts 294°
2026-05-05 09:37 51.89672 8.14613 29025 ft 416 kts 294°
2026-05-05 09:37 51.90863 8.10350 28823 ft 415 kts 294°
2026-05-05 09:37 51.92049 8.06096 28626 ft 414 kts 294°
2026-05-05 09:37 51.93213 8.01913 28431 ft 413 kts 294°
2026-05-05 09:38 51.94391 7.97673 28229 ft 412 kts 294°
2026-05-05 09:38 51.95565 7.93440 28032 ft 411 kts 294°
2026-05-05 09:38 51.96732 7.89224 27830 ft 410 kts 294°
2026-05-05 09:38 51.97894 7.85017 27628 ft 409 kts 294°
2026-05-05 09:39 51.99054 7.80810 27427 ft 407 kts 294°
2026-05-05 09:39 52.00204 7.76634 27241 ft 406 kts 294°
2026-05-05 09:39 52.01355 7.72442 27031 ft 405 kts 294°
2026-05-05 09:39 52.02500 7.68267 26831 ft 404 kts 294°
2026-05-05 09:40 52.03639 7.64107 26632 ft 403 kts 294°
2026-05-05 09:40 52.04765 7.59987 26430 ft 401 kts 294°
2026-05-05 09:40 52.05900 7.55829 26230 ft 400 kts 294°
2026-05-05 09:40 52.07024 7.51701 26017 ft 399 kts 294°
2026-05-05 09:41 52.08143 7.47582 25773 ft 399 kts 294°
2026-05-05 09:41 52.09264 7.43451 25524 ft 399 kts 294°
2026-05-05 09:41 52.10381 7.39326 25268 ft 398 kts 294°
2026-05-05 09:41 52.11497 7.35199 25027 ft 397 kts 294°
2026-05-05 09:42 52.12603 7.31100 24783 ft 395 kts 294°
2026-05-05 09:42 52.13703 7.27016 24527 ft 393 kts 294°
2026-05-05 09:42 52.14799 7.22940 24273 ft 391 kts 294°
2026-05-05 09:42 52.15874 7.18935 24025 ft 389 kts 294°
2026-05-05 09:43 52.16940 7.14894 23773 ft 387 kts 292°
2026-05-05 09:43 52.17904 7.10820 23516 ft 385 kts 290°
2026-05-05 09:43 52.18815 7.06723 23258 ft 383 kts 290°
2026-05-05 09:43 52.19706 7.02642 23015 ft 381 kts 289°
2026-05-05 09:44 52.20593 6.98578 22772 ft 379 kts 290°
2026-05-05 09:44 52.21479 6.94537 22517 ft 377 kts 290°
2026-05-05 09:44 52.22365 6.90515 22265 ft 376 kts 290°
2026-05-05 09:44 52.23242 6.86542 21910 ft 377 kts 290°
2026-05-05 09:45 52.24136 6.82498 21461 ft 379 kts 290°
2026-05-05 09:45 52.25028 6.78465 20992 ft 377 kts 290°
2026-05-05 09:45 52.25916 6.74440 20517 ft 375 kts 290°
2026-05-05 09:45 52.26798 6.70440 20047 ft 373 kts 290°
2026-05-05 09:46 52.27671 6.66474 19572 ft 371 kts 290°
2026-05-05 09:46 52.28537 6.62532 19100 ft 369 kts 290°
2026-05-05 09:46 52.29401 6.58590 18627 ft 367 kts 290°
2026-05-05 09:46 52.30260 6.54667 18157 ft 366 kts 290°
2026-05-05 09:47 52.31112 6.50766 17681 ft 364 kts 290°
2026-05-05 09:47 52.31959 6.46879 17204 ft 362 kts 289°
2026-05-05 09:47 52.32799 6.43018 16743 ft 360 kts 289°
2026-05-05 09:47 52.33634 6.39175 16237 ft 359 kts 289°
2026-05-05 09:48 52.34466 6.35337 15752 ft 358 kts 289°
2026-05-05 09:48 52.35297 6.31496 15250 ft 357 kts 289°
2026-05-05 09:48 52.36124 6.27665 14751 ft 356 kts 289°
2026-05-05 09:48 52.36944 6.23860 14263 ft 355 kts 289°
2026-05-05 09:49 52.37762 6.20055 13762 ft 354 kts 289°
2026-05-05 09:49 52.38569 6.16298 13272 ft 352 kts 289°
2026-05-05 09:49 52.39378 6.12524 12764 ft 351 kts 289°
2026-05-05 09:49 52.40186 6.08746 12279 ft 350 kts 289°
2026-05-05 09:50 52.40989 6.04989 11783 ft 349 kts 289°
2026-05-05 09:50 52.41787 6.01243 11281 ft 347 kts 289°
2026-05-05 09:50 52.42581 5.97511 10786 ft 346 kts 289°
2026-05-05 09:50 52.43370 5.93797 10278 ft 345 kts 289°
2026-05-05 09:51 52.44155 5.90089 9785 ft 343 kts 289°
2026-05-05 09:51 52.44936 5.86398 9290 ft 342 kts 289°
2026-05-05 09:51 52.45713 5.82720 8791 ft 341 kts 289°
2026-05-05 09:51 52.46485 5.79055 8297 ft 339 kts 289°
2026-05-05 09:52 52.47256 5.75389 7798 ft 338 kts 289°
2026-05-05 09:52 52.48019 5.71758 7307 ft 337 kts 289°
2026-05-05 09:52 52.48773 5.68169 7055 ft 328 kts 289°
2026-05-05 09:52 52.49488 5.64752 6988 ft 313 kts 289°
2026-05-05 09:53 52.50178 5.61449 6984 ft 298 kts 289°
2026-05-05 09:53 52.50571 5.58268 6978 ft 277 kts 267°
2026-05-05 09:53 52.50106 5.55279 6973 ft 270 kts 245°
2026-05-05 09:53 52.49092 5.52660 6761 ft 273 kts 231°
2026-05-05 09:54 52.47893 5.50257 6519 ft 272 kts 230°
2026-05-05 09:54 52.46687 5.47882 6264 ft 268 kts 230°
2026-05-05 09:54 52.45501 5.45547 6003 ft 265 kts 230°
2026-05-05 09:54 52.44350 5.43275 5709 ft 250 kts 230°
2026-05-05 09:55 52.43282 5.41157 5399 ft 234 kts 231°
2026-05-05 09:55 52.42268 5.39144 5141 ft 227 kts 231°
2026-05-05 09:55 52.41250 5.37117 5000 ft 232 kts 231°
2026-05-05 09:55 52.40217 5.35061 4783 ft 236 kts 231°
2026-05-05 09:56 52.39173 5.32980 4522 ft 235 kts 231°
2026-05-05 09:56 52.38158 5.30957 4265 ft 231 kts 231°
2026-05-05 09:56 52.37148 5.28950 4021 ft 228 kts 231°
2026-05-05 09:56 52.36191 5.27047 3783 ft 225 kts 231°
2026-05-05 09:57 52.35203 5.25084 3523 ft 223 kts 231°
2026-05-05 09:57 52.34222 5.23136 3262 ft 222 kts 231°
2026-05-05 09:57 52.33230 5.21169 3021 ft 221 kts 231°
2026-05-05 09:57 52.32265 5.19255 2769 ft 221 kts 231°
2026-05-05 09:58 52.31292 5.17326 2505 ft 218 kts 231°
2026-05-05 09:58 52.30338 5.15437 2267 ft 214 kts 231°
2026-05-05 09:58 52.29413 5.13607 2125 ft 202 kts 231°
2026-05-05 09:58 52.28513 5.11827 2074 ft 205 kts 231°
2026-05-05 09:59 52.27606 5.10036 2045 ft 202 kts 230°
2026-05-05 09:59 52.26719 5.08286 2032 ft 200 kts 230°
2026-05-05 09:59 52.25830 5.06533 2036 ft 200 kts 230°
2026-05-05 09:59 52.24942 5.04782 2042 ft 201 kts 230°
2026-05-05 10:00 52.23913 5.03294 2041 ft 198 kts 213°
2026-05-05 10:00 52.22729 5.02145 2043 ft 200 kts 210°
2026-05-05 10:00 52.21516 5.01014 2045 ft 201 kts 210°
2026-05-05 10:00 52.20302 4.99872 2042 ft 202 kts 210°
2026-05-05 10:01 52.19128 4.98758 2041 ft 203 kts 211°
2026-05-05 10:01 52.17910 4.97587 2040 ft 203 kts 211°
2026-05-05 10:01 52.16691 4.96408 2031 ft 203 kts 211°
2026-05-05 10:01 52.15493 4.95249 2030 ft 198 kts 211°
2026-05-05 10:02 52.14303 4.94095 2044 ft 201 kts 211°
2026-05-05 10:02 52.13101 4.92928 2041 ft 202 kts 211°
2026-05-05 10:02 52.11905 4.91743 2031 ft 200 kts 216°
2026-05-05 10:02 52.11121 4.89969 2031 ft 195 kts 257°
2026-05-05 10:03 52.11067 4.87793 2046 ft 192 kts 271°
2026-05-05 10:03 52.11071 4.85641 2050 ft 190 kts 270°
2026-05-05 10:03 52.11069 4.83481 2043 ft 190 kts 270°
2026-05-05 10:03 52.11093 4.81401 2018 ft 183 kts 278°
2026-05-05 10:04 52.11690 4.79686 2047 ft 175 kts 323°
2026-05-05 10:04 52.12753 4.78800 2046 ft 171 kts 334°
2026-05-05 10:04 52.13816 4.77924 2039 ft 171 kts 333°
2026-05-05 10:04 52.14875 4.77060 2016 ft 169 kts 338°
2026-05-05 10:05 52.16011 4.76794 2043 ft 170 kts 359°
2026-05-05 10:05 52.17212 4.76725 2050 ft 172 kts 359°
2026-05-05 10:05 52.18408 4.76760 2038 ft 171 kts
2026-05-05 10:05 52.19605 4.76860 1855 ft 174 kts
2026-05-05 10:06 52.20755 4.76965 1618 ft 157 kts
2026-05-05 10:06 52.21801 4.77063 1412 ft 145 kts
2026-05-05 10:06 52.22800 4.77154 1252 ft 144 kts
2026-05-05 10:06 52.23800 4.77246 1055 ft 143 kts
2026-05-05 10:07 52.24789 4.77337 850 ft 142 kts
2026-05-05 10:07 52.25769 4.77424 674 ft 141 kts
2026-05-05 10:07 52.26750 4.77516 484 ft 141 kts
2026-05-05 10:07 52.27728 4.77607 307 ft 141 kts
2026-05-05 10:08 52.28703 4.77697 116 ft 141 kts
2026-05-05 10:08 52.29668 4.77788 4 ft 134 kts
2026-05-05 10:08 52.30533 4.77862 5 ft 121 kts
2026-05-05 10:08 52.31215 4.77933 3 ft 75 kts
2026-05-05 10:09 52.31597 4.77960 5 ft 31 kts
2026-05-05 10:09 52.31812 4.77979 3 ft 30 kts
2026-05-05 10:09 52.32021 4.78000 4 ft 30 kts
2026-05-05 10:09 52.32094 4.77868 4 ft 19 kts 233°
2026-05-05 10:10 52.31994 4.77734 4 ft 19 kts 202°
2026-05-05 10:10 52.31868 4.77706 3 ft 19 kts 181°
2026-05-05 10:10 52.31741 4.77672 5 ft 19 kts 210°
2026-05-05 10:10 52.31658 4.77512 3 ft 19 kts 235°
2026-05-05 10:11 52.31629 4.77443 3 ft 2 kts 236°
2026-05-05 10:11 52.31620 4.77420 4 ft 3 kts 236°
2026-05-05 10:11 52.31594 4.77355 4 ft 11 kts 239°
2026-05-05 10:11 52.31571 4.77230 4 ft 14 kts 264°
2026-05-05 10:12 52.31564 4.77014 4 ft 21 kts 267°
2026-05-05 10:12 52.31557 4.76791 4 ft 18 kts 264°
2026-05-05 10:12 52.31473 4.76662 4 ft 18 kts 206°
2026-05-05 10:12 52.31373 4.76565 4 ft 15 kts 211°
2026-05-05 10:13 52.31291 4.76472 4 ft 12 kts 215°
2026-05-05 10:13 52.31228 4.76496 4 ft 8 kts 119°
2026-05-05 10:13 52.31213 4.76539 4 ft 1 kts 120°
2026-05-05 10:13 52.31206 4.76558 4 ft 2 kts 121°
2026-05-05 10:14 52.31205 4.76561 4 ft 0 kts 121°